Location: Pedholt
(56.0260°N, 10.2097°E)
Time: 06:07:59
(UTC+00:00)

Cosmos 1656 - Pass Details

Date: 14 July 2020
Orbit: 799 x 848 km, 71.1° (Epoch: 14 August)

Event Time Altitude Azimuth Distance (km) Brightness Sun altitude
Rises 00:42:30 0° 324° (NW) 3,322 7.3 -10.6°
Reaches altitude 10° 00:44:57 10° 321° (NW) 2,387 6.5 -10.5°
Maximum altitude 00:50:17 59° 243° (WSW) 926 3.7 -10.3°
Drops below altitude 10° 00:55:37 10° 165° (SSE) 2,380 5.6 -10.0°
Enters shadow 00:56:35 - 164° (SSE) 2,751 5.9 -10.0°
